Time,TemperatureF,DewpointF,PressureIn,WindDirection,WindDirectionDegrees,WindSpeedMPH,WindSpeedGustMPH,Humidity,HourlyPrecipIn,Conditions,Clouds,dailyrainin,SoftwareType,DateUTC
2013-05-19 00:03:00,63.0,60.0,-100.00,East,100,3.0,4.0,92,0.00,,,0.89,,2013-05-19 04:03:00,
2013-05-19 00:13:00,63.0,60.0,-100.00,East,100,3.0,4.0,92,0.00,,,0.89,,2013-05-19 04:13:00,
2013-05-19 00:23:00,63.0,60.0,-100.00,ESE,112,2.0,5.0,92,0.09,,,0.72,,2013-05-19 04:23:00,
2013-05-19 00:33:00,63.0,60.0,-100.00,ESE,112,2.0,5.0,92,0.09,,,0.72,,2013-05-19 04:33:00,
2013-05-19 00:42:00,62.0,60.0,-100.00,East,97,2.0,6.0,92,0.27,,,0.64,,2013-05-19 04:42:00,
2013-05-19 00:53:00,62.0,60.0,-100.00,East,97,2.0,6.0,92,0.27,,,0.64,,2013-05-19 04:53:00,
2013-05-19 01:02:00,62.0,60.0,-100.00,ESE,102,0.0,1.0,93,0.03,,,0.54,,2013-05-19 05:02:00,
2013-05-19 01:12:00,62.0,60.0,-100.00,ESE,102,0.0,1.0,93,0.03,,,0.54,,2013-05-19 05:12:00,
2013-05-19 01:22:00,62.0,60.0,-100.00,ENE,66,2.0,3.0,94,0.00,,,0.44,,2013-05-19 05:22:00,
2013-05-19 01:32:00,62.0,60.0,-100.00,ENE,66,2.0,3.0,94,0.00,,,0.44,,2013-05-19 05:32:00,
2013-05-19 01:42:00,62.0,60.0,-100.00,ENE,66,2.0,3.0,94,0.00,,,0.44,,2013-05-19 05:42:00,
2013-05-19 01:52:00,62.0,60.0,-100.00,ENE,71,2.0,5.0,94,0.00,,,0.32,,2013-05-19 05:52:00,
2013-05-19 02:02:00,62.0,60.0,-100.00,SE,126,5.0,7.0,94,0.00,,,0.23,,2013-05-19 06:02:00,
2013-05-19 02:12:00,62.0,60.0,-100.00,SE,126,5.0,7.0,94,0.00,,,0.23,,2013-05-19 06:12:00,
2013-05-19 02:21:00,62.0,60.0,-100.00,WNW,301,1.0,2.0,94,0.01,,,0.23,,2013-05-19 06:21:00,
2013-05-19 02:32:00,62.0,60.0,-100.00,WNW,301,1.0,2.0,94,0.01,,,0.23,,2013-05-19 06:32:00,
2013-05-19 02:42:00,62.0,60.0,-100.00,NNE,17,1.0,4.0,94,0.00,,,0.23,,2013-05-19 06:42:00,
2013-05-19 02:52:00,62.0,60.0,-100.00,NNE,17,1.0,4.0,94,0.00,,,0.23,,2013-05-19 06:52:00,
2013-05-19 03:01:00,62.0,60.0,-100.00,ENE,62,2.0,4.0,94,0.00,,,0.23,,2013-05-19 07:01:00,
2013-05-19 03:11:00,62.0,60.0,-100.00,ENE,62,2.0,4.0,94,0.00,,,0.23,,2013-05-19 07:11:00,
2013-05-19 03:22:00,62.0,60.0,-100.00,SE,128,2.0,4.0,94,0.00,,,0.23,,2013-05-19 07:22:00,
2013-05-19 03:32:00,62.0,60.0,-100.00,SE,128,2.0,4.0,94,0.00,,,0.23,,2013-05-19 07:32:00,
2013-05-19 03:42:00,62.0,61.0,-100.00,ESE,123,3.0,4.0,94,0.00,,,0.23,,2013-05-19 07:42:00,
2013-05-19 03:52:00,62.0,61.0,-100.00,ESE,123,3.0,4.0,94,0.00,,,0.23,,2013-05-19 07:52:00,
2013-05-19 04:02:00,62.0,60.0,-100.00,SSE,160,7.0,9.0,93,0.00,,,0.23,,2013-05-19 08:02:00,
2013-05-19 04:12:00,62.0,60.0,-100.00,SSE,160,7.0,9.0,93,0.00,,,0.23,,2013-05-19 08:12:00,
2013-05-19 04:22:00,62.0,60.0,-100.00,SSE,164,7.0,9.0,93,0.00,,,0.23,,2013-05-19 08:22:00,
2013-05-19 04:32:00,62.0,60.0,-100.00,SSE,164,7.0,9.0,93,0.00,,,0.23,,2013-05-19 08:32:00,
2013-05-19 04:42:00,62.0,60.0,-100.00,South,172,5.0,6.0,93,0.00,,,0.23,,2013-05-19 08:42:00,
2013-05-19 04:52:00,62.0,60.0,-100.00,South,172,5.0,6.0,93,0.00,,,0.23,,2013-05-19 08:52:00,
2013-05-19 05:02:00,62.0,60.0,-100.00,South,189,5.0,6.0,93,0.06,,,0.24,,2013-05-19 09:02:00,
2013-05-19 05:12:00,62.0,60.0,-100.00,South,189,5.0,6.0,93,0.06,,,0.24,,2013-05-19 09:12:00,
2013-05-19 05:21:00,62.0,60.0,-100.00,South,182,4.0,5.0,94,0.00,,,0.24,,2013-05-19 09:21:00,
2013-05-19 05:33:00,62.0,60.0,-100.00,South,182,4.0,5.0,94,0.00,,,0.24,,2013-05-19 09:33:00,
2013-05-19 05:43:00,62.0,60.0,-100.00,SSE,168,5.0,6.0,94,0.00,,,0.24,,2013-05-19 09:43:00,
2013-05-19 05:53:00,62.0,60.0,-100.00,SSE,168,5.0,6.0,94,0.00,,,0.24,,2013-05-19 09:53:00,
2013-05-19 06:03:00,62.0,60.0,-100.00,South,176,3.0,5.0,94,0.00,,,0.24,,2013-05-19 10:03:00,
2013-05-19 06:12:00,62.0,60.0,-100.00,South,176,3.0,5.0,94,0.00,,,0.24,,2013-05-19 10:12:00,
2013-05-19 06:23:00,62.0,60.0,-100.00,South,184,7.0,10.0,94,0.01,,,0.25,,2013-05-19 10:23:00,
2013-05-19 06:33:00,62.0,60.0,-100.00,South,184,7.0,10.0,94,0.01,,,0.25,,2013-05-19 10:33:00,
2013-05-19 06:42:00,62.0,60.0,-100.00,SSE,167,8.0,10.0,93,0.00,,,0.25,,2013-05-19 10:42:00,
2013-05-19 06:53:00,62.0,60.0,-100.00,SSE,167,8.0,10.0,93,0.00,,,0.25,,2013-05-19 10:53:00,
2013-05-19 07:02:00,62.0,60.0,-100.00,SSE,167,6.0,8.0,93,0.00,,,0.25,,2013-05-19 11:02:00,
2013-05-19 07:12:00,62.0,60.0,-100.00,SSE,167,6.0,8.0,93,0.00,,,0.25,,2013-05-19 11:12:00,
2013-05-19 07:22:00,62.0,60.0,-100.00,South,172,6.0,10.0,93,0.00,,,0.25,,2013-05-19 11:22:00,
2013-05-19 07:32:00,62.0,60.0,-100.00,South,172,6.0,10.0,93,0.00,,,0.25,,2013-05-19 11:32:00,
2013-05-19 07:42:00,62.0,60.0,-100.00,South,169,9.0,11.0,93,0.00,,,0.25,,2013-05-19 11:42:00,
2013-05-19 07:53:00,62.0,60.0,-100.00,South,169,9.0,11.0,93,0.00,,,0.25,,2013-05-19 11:53:00,
2013-05-19 08:01:00,62.0,60.0,-100.00,SSE,155,7.0,11.0,94,0.00,,,0.25,,2013-05-19 12:01:00,
2013-05-19 08:12:00,62.0,60.0,-100.00,SSE,155,7.0,11.0,94,0.00,,,0.25,,2013-05-19 12:12:00,
2013-05-19 08:22:00,62.0,60.0,-100.00,South,172,6.0,7.0,95,0.00,,,0.25,,2013-05-19 12:22:00,
2013-05-19 08:32:00,62.0,60.0,-100.00,South,172,6.0,7.0,95,0.00,,,0.25,,2013-05-19 12:32:00,
2013-05-19 08:42:00,62.0,61.0,-100.00,SSE,167,6.0,8.0,95,0.00,,,0.25,,2013-05-19 12:42:00,
2013-05-19 08:52:00,62.0,61.0,-100.00,SSE,167,6.0,8.0,95,0.00,,,0.25,,2013-05-19 12:52:00,
2013-05-19 09:01:00,62.0,61.0,-100.00,SSE,161,6.0,9.0,96,0.03,,,0.25,,2013-05-19 13:01:00,
2013-05-19 09:11:00,62.0,61.0,-100.00,SSE,161,6.0,9.0,96,0.03,,,0.25,,2013-05-19 13:11:00,
2013-05-19 09:21:00,62.0,61.0,-100.00,SSE,167,5.0,7.0,96,0.03,,,0.28,,2013-05-19 13:21:00,
2013-05-19 09:32:00,62.0,61.0,-100.00,SSE,167,5.0,7.0,96,0.03,,,0.28,,2013-05-19 13:32:00,
2013-05-19 09:42:00,62.0,61.0,-100.00,SSE,158,6.0,8.0,96,0.00,,,0.29,,2013-05-19 13:42:00,
2013-05-19 09:52:00,62.0,61.0,-100.00,SSE,158,6.0,8.0,96,0.00,,,0.29,,2013-05-19 13:52:00,
2013-05-19 10:02:00,63.0,62.0,-100.00,SSE,152,3.0,4.0,96,0.00,,,0.29,,2013-05-19 14:02:00,
2013-05-19 10:11:00,63.0,62.0,-100.00,SSE,152,3.0,4.0,96,0.00,,,0.29,,2013-05-19 14:11:00,
2013-05-19 10:21:00,63.0,61.0,-100.00,SSE,147,5.0,6.0,95,0.00,,,0.29,,2013-05-19 14:21:00,
2013-05-19 10:32:00,63.0,61.0,-100.00,SSE,147,5.0,6.0,95,0.00,,,0.29,,2013-05-19 14:32:00,
2013-05-19 10:42:00,63.0,61.0,-100.00,SSE,160,5.0,7.0,94,0.00,,,0.29,,2013-05-19 14:42:00,
2013-05-19 10:52:00,63.0,61.0,-100.00,SSE,160,5.0,7.0,94,0.00,,,0.29,,2013-05-19 14:52:00,
2013-05-19 11:02:00,64.0,62.0,-100.00,SSE,152,4.0,8.0,92,0.00,,,0.29,,2013-05-19 15:02:00,
2013-05-19 11:12:00,64.0,62.0,-100.00,SSE,152,4.0,8.0,92,0.00,,,0.29,,2013-05-19 15:12:00,
2013-05-19 11:22:00,63.0,61.0,-100.00,SSE,164,6.0,7.0,92,0.00,,,0.29,,2013-05-19 15:22:00,
2013-05-19 11:33:00,63.0,61.0,-100.00,SSE,164,6.0,7.0,92,0.00,,,0.29,,2013-05-19 15:33:00,
2013-05-19 11:43:00,63.0,61.0,-100.00,SSE,158,4.0,5.0,94,0.00,,,0.30,,2013-05-19 15:43:00,
2013-05-19 11:50:00,64.0,62.0,-100.00,ESE,106,4.0,6.0,93,0.01,,,0.30,,2013-05-19 15:50:00,
2013-05-19 11:53:00,63.0,61.0,-100.00,SSE,158,4.0,5.0,94,0.00,,,0.30,,2013-05-19 15:53:00,
2013-05-19 12:03:00,64.0,62.0,-100.00,ESE,107,1.0,2.0,94,0.01,,,0.30,,2013-05-19 16:03:00,
2013-05-19 12:12:00,64.0,62.0,-100.00,ESE,107,1.0,2.0,94,0.01,,,0.30,,2013-05-19 16:12:00,
2013-05-19 12:23:00,64.0,62.0,-100.00,ESE,106,4.0,6.0,93,0.01,,,0.30,,2013-05-19 16:23:00,
2013-05-19 12:32:00,64.0,62.0,-100.00,ESE,106,4.0,6.0,93,0.01,,,0.30,,2013-05-19 16:32:00,
2013-05-19 12:42:00,64.0,62.0,-100.00,ESE,106,4.0,6.0,93,0.01,,,0.30,,2013-05-19 16:42:00,
2013-05-19 13:02:00,64.0,62.0,-100.00,SE,138,4.0,5.0,91,0.00,,,0.30,,2013-05-19 17:02:00,
2013-05-19 13:12:00,64.0,62.0,-100.00,SE,138,4.0,5.0,91,0.00,,,0.30,,2013-05-19 17:12:00,
2013-05-19 13:22:00,64.0,62.0,-100.00,SE,127,4.0,5.0,91,0.00,,,0.30,,2013-05-19 17:22:00,
2013-05-19 13:32:00,64.0,62.0,-100.00,SE,127,4.0,5.0,91,0.00,,,0.30,,2013-05-19 17:32:00,
2013-05-19 13:42:00,64.0,61.0,-100.00,SE,126,6.0,8.0,89,0.00,,,0.30,,2013-05-19 17:42:00,
2013-05-19 13:52:00,64.0,61.0,-100.00,SE,126,6.0,8.0,89,0.00,,,0.30,,2013-05-19 17:52:00,
2013-05-19 14:02:00,65.0,61.0,-100.00,ESE,102,6.0,9.0,88,0.00,,,0.30,,2013-05-19 18:02:00,
2013-05-19 14:12:00,65.0,61.0,-100.00,ESE,102,6.0,9.0,88,0.00,,,0.30,,2013-05-19 18:12:00,
2013-05-19 14:22:00,65.0,61.0,-100.00,ESE,117,3.0,5.0,86,0.00,,,0.30,,2013-05-19 18:22:00,
2013-05-19 14:32:00,65.0,61.0,-100.00,ESE,117,3.0,5.0,86,0.00,,,0.30,,2013-05-19 18:32:00,
2013-05-19 14:43:00,65.0,61.0,-100.00,East,99,4.0,8.0,87,0.00,,,0.30,,2013-05-19 18:43:00,
2013-05-19 14:53:00,65.0,61.0,-100.00,East,99,4.0,8.0,87,0.00,,,0.30,,2013-05-19 18:53:00,
2013-05-19 15:01:00,65.0,61.0,-100.00,ESE,112,5.0,7.0,88,0.00,,,0.30,,2013-05-19 19:01:00,
2013-05-19 15:11:00,65.0,61.0,-100.00,ESE,112,5.0,7.0,88,0.00,,,0.30,,2013-05-19 19:11:00,
2013-05-19 15:22:00,65.0,62.0,-100.00,ESE,123,3.0,6.0,88,0.00,,,0.30,,2013-05-19 19:22:00,
2013-05-19 15:32:00,66.0,62.0,-100.00,East,95,6.0,9.0,87,0.00,,,0.30,,2013-05-19 19:32:00,
2013-05-19 15:42:00,66.0,62.0,-100.00,East,95,6.0,9.0,87,0.00,,,0.30,,2013-05-19 19:42:00,
2013-05-19 15:52:00,66.0,62.0,-100.00,East,95,6.0,9.0,87,0.00,,,0.30,,2013-05-19 19:52:00,
2013-05-19 16:02:00,66.0,62.0,-100.00,SE,134,4.0,5.0,86,0.00,,,0.30,,2013-05-19 20:02:00,
2013-05-19 16:11:00,66.0,62.0,-100.00,SE,134,4.0,5.0,86,0.00,,,0.30,,2013-05-19 20:11:00,
2013-05-19 16:22:00,67.0,62.0,-100.00,ESE,113,3.0,5.0,86,0.00,,,0.30,,2013-05-19 20:22:00,
2013-05-19 16:32:00,67.0,62.0,-100.00,ESE,113,3.0,5.0,86,0.00,,,0.30,,2013-05-19 20:32:00,
2013-05-19 16:42:00,67.0,62.0,-100.00,SSE,151,7.0,9.0,87,0.00,,,0.30,,2013-05-19 20:42:00,
2013-05-19 16:52:00,67.0,63.0,-100.00,ESE,116,5.0,6.0,87,0.00,,,0.30,,2013-05-19 20:52:00,
2013-05-19 17:02:00,67.0,63.0,-100.00,ESE,116,5.0,6.0,87,0.00,,,0.30,,2013-05-19 21:02:00,
2013-05-19 17:11:00,67.0,63.0,-100.00,ESE,116,5.0,6.0,87,0.00,,,0.30,,2013-05-19 21:11:00,
2013-05-19 17:22:00,67.0,63.0,-100.00,ESE,116,5.0,6.0,87,0.00,,,0.30,,2013-05-19 21:22:00,
2013-05-19 17:32:00,67.0,63.0,-100.00,SE,124,4.0,6.0,88,0.00,,,0.30,,2013-05-19 21:32:00,
2013-05-19 17:43:00,67.0,63.0,-100.00,ESE,120,4.0,6.0,87,0.00,,,0.30,,2013-05-19 21:43:00,
2013-05-19 17:53:00,67.0,63.0,-100.00,ESE,120,4.0,6.0,87,0.00,,,0.30,,2013-05-19 21:53:00,
2013-05-19 18:03:00,67.0,63.0,-100.00,ESE,119,4.0,7.0,87,0.00,,,0.30,,2013-05-19 22:03:00,
2013-05-19 18:12:00,67.0,63.0,-100.00,ESE,119,4.0,7.0,87,0.00,,,0.30,,2013-05-19 22:12:00,
2013-05-19 18:23:00,68.0,63.0,-100.00,ESE,103,4.0,6.0,86,0.00,,,0.30,,2013-05-19 22:23:00,
2013-05-19 18:33:00,68.0,63.0,-100.00,ESE,103,4.0,6.0,86,0.00,,,0.30,,2013-05-19 22:33:00,
2013-05-19 18:42:00,68.0,63.0,-100.00,ESE,102,2.0,3.0,86,0.00,,,0.30,,2013-05-19 22:42:00,
2013-05-19 18:53:00,68.0,63.0,-100.00,ESE,102,2.0,3.0,86,0.00,,,0.30,,2013-05-19 22:53:00,
2013-05-19 19:03:00,68.0,63.0,-100.00,South,174,4.0,6.0,85,0.00,,,0.30,,2013-05-19 23:03:00,
2013-05-19 19:12:00,68.0,63.0,-100.00,South,174,4.0,6.0,85,0.00,,,0.30,,2013-05-19 23:12:00,
2013-05-19 19:22:00,68.0,63.0,-100.00,South,174,4.0,6.0,85,0.00,,,0.30,,2013-05-19 23:22:00,
2013-05-19 19:32:00,67.0,63.0,-100.00,South,172,4.0,6.0,86,0.00,,,0.30,,2013-05-19 23:32:00,
2013-05-19 19:42:00,68.0,63.0,-100.00,SE,145,3.0,5.0,86,0.00,,,0.30,,2013-05-19 23:42:00,
2013-05-19 19:52:00,68.0,63.0,-100.00,SE,145,3.0,5.0,86,0.00,,,0.30,,2013-05-19 23:52:00,
2013-05-19 20:02:00,67.0,63.0,-100.00,ESE,121,0.0,1.0,88,0.00,,,0.30,,2013-05-20 00:02:00,
2013-05-19 20:12:00,67.0,63.0,-100.00,ESE,121,0.0,1.0,88,0.00,,,0.30,,2013-05-20 00:12:00,
2013-05-19 20:22:00,67.0,64.0,-100.00,NE,38,0.0,0.0,89,0.00,,,0.30,,2013-05-20 00:22:00,
2013-05-19 20:32:00,67.0,64.0,-100.00,NE,38,0.0,0.0,89,0.00,,,0.30,,2013-05-20 00:32:00,
2013-05-19 20:42:00,66.0,63.0,-100.00,NE,34,2.0,3.0,91,0.00,,,0.29,,2013-05-20 00:42:00,
2013-05-19 20:52:00,66.0,63.0,-100.00,NE,34,2.0,3.0,91,0.00,,,0.29,,2013-05-20 00:52:00,
2013-05-19 21:01:00,66.0,63.0,-100.00,NE,37,2.0,2.0,92,0.00,,,0.27,,2013-05-20 01:01:00,
2013-05-19 21:11:00,66.0,63.0,-100.00,NE,37,2.0,2.0,92,0.00,,,0.27,,2013-05-20 01:11:00,
2013-05-19 21:22:00,65.0,63.0,-100.00,NE,49,2.0,4.0,94,0.00,,,0.23,,2013-05-20 01:22:00,
2013-05-19 21:32:00,65.0,63.0,-100.00,NE,49,2.0,4.0,94,0.00,,,0.23,,2013-05-20 01:32:00,
2013-05-19 21:42:00,65.0,63.0,-100.00,NE,47,3.0,4.0,94,0.00,,,0.23,,2013-05-20 01:42:00,
2013-05-19 21:52:00,65.0,63.0,-100.00,NE,47,3.0,4.0,94,0.00,,,0.23,,2013-05-20 01:52:00,
2013-05-19 22:02:00,65.0,63.0,-100.00,North,8,0.0,1.0,95,0.03,,,0.23,,2013-05-20 02:02:00,
2013-05-19 22:12:00,65.0,63.0,-100.00,North,8,0.0,1.0,95,0.03,,,0.23,,2013-05-20 02:12:00,
2013-05-19 22:21:00,65.0,63.0,-100.00,NW,318,1.0,2.0,95,0.28,,,0.34,,2013-05-20 02:21:00,
2013-05-19 22:32:00,65.0,63.0,-100.00,NW,318,1.0,2.0,95,0.28,,,0.34,,2013-05-20 02:32:00,
2013-05-19 22:42:00,65.0,63.0,-100.00,North,4,1.0,2.0,95,0.38,,,0.43,,2013-05-20 02:42:00,
2013-05-19 22:52:00,65.0,63.0,-100.00,North,4,1.0,2.0,95,0.38,,,0.43,,2013-05-20 02:52:00,
2013-05-19 23:02:00,64.0,63.0,-100.00,ENE,59,2.0,4.0,96,0.33,,,0.54,,2013-05-20 03:02:00,
2013-05-19 23:12:00,64.0,63.0,-100.00,ENE,59,2.0,4.0,96,0.33,,,0.54,,2013-05-20 03:12:00,
2013-05-19 23:21:00,64.0,63.0,-100.00,North,1,2.0,2.0,96,0.01,,,0.60,,2013-05-20 03:21:00,
2013-05-19 23:33:00,64.0,63.0,-100.00,North,1,2.0,2.0,96,0.01,,,0.60,,2013-05-20 03:33:00,
2013-05-19 23:43:00,64.0,63.0,-100.00,ENE,61,1.0,2.0,96,0.00,,,0.60,,2013-05-20 03:43:00,
2013-05-19 23:53:00,64.0,63.0,-100.00,ENE,61,1.0,2.0,96,0.00,,,0.60,,2013-05-20 03:53:00,